N55CR KLAX-KFAT

Flight info

Callsign N55CR
Flight time N/A
Altitude VFR
Route VFR N
Aircraft

Departure

Time 2026-04-25 20:20
Airport Los Angeles International Airport (KLAX)

Arrival

Time N/A
Airport Fresno Yosemite International Airport (KFAT)
Time Latitude Longitude Altitude Speed Heading
2026-04-25 19:57 33.93270 -118.39809 112 ft 0 kts 354°
2026-04-25 20:14 33.93283 -118.39810 112 ft 6 kts 357°
2026-04-25 20:14 33.93371 -118.39816 112 ft 17 kts 354°
2026-04-25 20:14 33.93460 -118.39784 110 ft 12 kts 80°
2026-04-25 20:15 33.93473 -118.39657 107 ft 18 kts 85°
2026-04-25 20:15 33.93491 -118.39493 106 ft 20 kts 85°
2026-04-25 20:15 33.93508 -118.39312 103 ft 22 kts 82°
2026-04-25 20:15 33.93527 -118.39113 103 ft 24 kts 82°
2026-04-25 20:16 33.93549 -118.38902 100 ft 26 kts 78°
2026-04-25 20:16 33.93574 -118.38674 100 ft 27 kts 82°
2026-04-25 20:16 33.93599 -118.38454 99 ft 23 kts 83°
2026-04-25 20:16 33.93628 -118.38297 97 ft 5 kts 52°
2026-04-25 20:17 33.93645 -118.38285 97 ft 1 kts 24°
2026-04-25 20:17 33.93648 -118.38284 97 ft 0 kts 28°
2026-04-25 20:17 33.93663 -118.38284 97 ft 5 kts
2026-04-25 20:18 33.93724 -118.38332 97 ft 14 kts 276°
2026-04-25 20:18 33.93724 -118.38404 98 ft 0 kts 262°
2026-04-25 20:19 33.93724 -118.38405 98 ft 1 kts 261°
2026-04-25 20:19 33.93692 -118.38696 100 ft 72 kts 263°
2026-04-25 20:19 33.93640 -118.39497 286 ft 105 kts 266°
2026-04-25 20:20 33.93579 -118.40347 718 ft 102 kts 256°
2026-04-25 20:20 33.93482 -118.41180 1142 ft 103 kts 261°
2026-04-25 20:20 33.93445 -118.42078 1535 ft 120 kts 263°
2026-04-25 20:20 33.93419 -118.43180 1959 ft 142 kts 265°
2026-04-25 20:21 33.93361 -118.44473 2320 ft 168 kts 264°
2026-04-25 20:21 33.93463 -118.45945 2836 ft 184 kts 285°
2026-04-25 20:21 33.94070 -118.47347 3332 ft 199 kts 307°
2026-04-25 20:21 33.94973 -118.48654 3825 ft 209 kts 309°
2026-04-25 20:22 33.95952 -118.49988 4385 ft 215 kts 311°
2026-04-25 20:22 33.96617 -118.50870 4714 ft 220 kts 311°
2026-04-25 20:22 33.98019 -118.52694 5425 ft 225 kts 313°
2026-04-25 20:22 33.99088 -118.54067 5959 ft 227 kts 310°
2026-04-25 20:23 34.00168 -118.55579 6079 ft 246 kts 310°
2026-04-25 20:23 34.01220 -118.57037 6978 ft 227 kts 309°
2026-04-25 20:23 34.02244 -118.58463 7582 ft 224 kts 308°